Terminal Aerodrome Forecast
Issued by NWS Bismarck, ND

Home | Current Version | Previous Version | Graphics & Text | Print | Product List | Glossary On
Versions: 1 2 3 4 5 6 7 8 9 10 11 12 13 14 15 16 17 18 19 20 21 22 23
000
FTUS43 KBIS 291100
TAFBIS
TAF
KBIS 291138Z 2912/3012 06011KT P6SM OVC060
     FM291700 10012KT P6SM SCT007 OVC012
     FM292100 12013KT P6SM SCT012 BKN035
     FM300300 12016KT P6SM -SHRA VCTS BKN012 BKN025CB=

USA.gov is the U.S. government's official web portal to all federal, state and local government web resources and services.